Date String (YYYY-MM-DD hh:mm:ss) UTC,Instrument flags,Ambient pressure (hPa),Sample flow (lpm),Bypass flow (lpm),Sample temperature (°C),Ambient temperature (°C),ASC tube jacket temperature (°C),LED temperature (°C),Box temperature (°C),Sample RH (%),Span deviation,Mass concentration (μg/m³),Mass concentration (μg/m³),Mass concentration (μg/m³)
DateTimeUTC,F1_M11,P_M11,Q1_M11,Q2_M11,T1_M11,T2_M11,T3_M11,T4_M11,T5_M11,U1_M11,ZSPAN_M11,X0_M11,X2_M11,X1_M11
2022-09-17 02:00:00,,0824.0,5.00,0.00,30.0,28.2,00.0,38.8,31.8,16.9,0000.0,0004.12,0001.87,0001.57
2022-09-17 02:01:00,,0824.1,5.01,0.00,30.0,28.4,00.0,38.8,31.8,16.8,0000.0,0003.40,0001.88,0001.57
2022-09-17 02:02:00,,0824.0,4.99,0.00,30.0,28.5,00.0,38.7,31.8,16.7,0000.0,0003.37,0001.88,0001.57
2022-09-17 02:03:00,,0824.0,5.00,0.00,30.0,28.6,00.0,38.8,31.9,16.5,0000.0,0003.27,0001.86,0001.58
2022-09-17 02:04:00,,0824.0,5.01,0.00,30.1,28.7,00.0,38.8,31.9,16.8,0000.0,0003.08,0001.85,0001.58
2022-09-17 02:05:00,,0824.1,5.02,0.00,30.1,28.8,00.0,38.8,31.9,16.5,0000.0,0003.02,0001.83,0001.59
2022-09-17 02:06:00,,0824.1,5.01,0.00,30.1,28.9,00.0,38.8,32.0,16.5,0000.0,0002.84,0001.79,0001.58
2022-09-17 02:07:00,,0824.1,4.99,0.00,30.1,28.9,00.0,38.8,32.0,16.5,0000.0,0002.63,0001.79,0001.57
2022-09-17 02:08:00,,0824.1,5.01,0.00,30.2,29.0,00.0,38.8,32.0,16.6,0000.0,0002.59,0001.81,0001.56
2022-09-17 02:09:00,,0824.1,4.99,0.00,30.2,29.0,00.0,38.9,32.1,16.4,0000.0,0002.20,0001.76,0001.56
2022-09-17 02:10:00,,0824.1,4.99,0.00,30.2,29.1,00.0,38.9,32.1,16.6,0000.0,0002.13,0001.71,0001.55
2022-09-17 02:11:00,,0824.1,5.01,0.00,30.2,29.1,00.0,38.9,32.1,16.6,0000.0,0002.80,0001.70,0001.55
2022-09-17 02:12:00,,0824.2,4.99,0.00,30.3,29.2,00.0,38.9,32.1,16.6,0000.0,0002.72,0001.70,0001.56
2022-09-17 02:13:00,,0824.2,5.01,0.00,30.3,28.3,00.0,38.9,32.1,16.8,0000.0,0002.66,0001.69,0001.56
2022-09-17 02:14:00,,0824.3,5.00,0.00,30.2,27.0,00.0,38.9,32.0,16.8,0000.0,0002.66,0001.68,0001.54
2022-09-17 02:15:00,,0824.4,5.00,0.00,30.2,26.9,00.0,38.8,32.0,17.0,0000.0,0002.69,0001.69,0001.53
2022-09-17 02:16:00,,0824.2,5.00,0.00,30.1,27.2,00.0,38.8,31.8,17.2,0000.0,0002.69,0001.68,0001.51
2022-09-17 02:17:00,,0824.2,5.00,0.00,30.1,27.5,00.0,38.8,31.8,17.2,0000.0,0002.85,0001.69,0001.50
2022-09-17 02:18:00,,0824.2,5.00,0.00,30.0,27.8,00.0,38.8,31.7,17.1,0000.0,0002.86,0001.68,0001.50
2022-09-17 02:19:00,,0824.3,5.00,0.00,30.0,28.0,00.0,38.8,31.7,17.1,0000.0,0002.86,0001.68,0001.51
2022-09-17 02:20:00,,0824.4,5.00,0.00,30.0,28.2,00.0,38.8,31.8,17.0,0000.0,0002.92,0001.69,0001.51
2022-09-17 02:21:00,,0824.4,5.01,0.00,30.0,28.4,00.0,38.8,31.8,16.9,0000.0,0002.91,0001.69,0001.51
2022-09-17 02:22:00,,0824.4,4.99,0.00,30.0,28.5,00.0,38.8,31.9,16.6,0000.0,0002.27,0001.70,0001.52
2022-09-17 02:23:00,,0824.5,5.00,0.00,30.1,28.6,00.0,38.8,31.9,16.6,0000.0,0002.16,0001.69,0001.52
2022-09-17 02:24:00,,0824.5,5.00,0.00,30.1,28.7,00.0,38.8,31.9,16.7,0000.0,0002.27,0001.71,0001.53
2022-09-17 02:25:00,,0824.4,5.01,0.00,30.1,28.8,00.0,38.8,32.0,16.6,0000.0,0002.38,0001.73,0001.54
2022-09-17 02:26:00,,0824.4,4.99,0.00,30.1,28.9,00.0,38.8,32.0,16.6,0000.0,0002.40,0001.73,0001.54
2022-09-17 02:27:00,,0824.4,4.99,0.00,30.1,28.9,00.0,38.8,32.0,16.3,0000.0,0002.45,0001.75,0001.56
2022-09-17 02:28:00,,0824.4,5.01,0.00,30.2,29.0,00.0,38.8,32.0,16.4,0000.0,0002.36,0001.76,0001.58
2022-09-17 02:29:00,,0824.8,5.00,0.00,30.2,29.0,00.0,38.9,32.1,16.4,0000.0,0002.39,0001.80,0001.60
2022-09-17 02:30:00,,0824.5,5.00,0.00,30.2,29.1,00.0,38.9,32.1,16.4,0000.0,0002.42,0001.82,0001.60
2022-09-17 02:31:00,,0824.5,5.00,0.00,30.2,29.1,00.0,38.9,32.1,16.3,0000.0,0002.42,0001.83,0001.61
2022-09-17 02:32:00,,0824.8,5.00,0.00,30.3,29.2,00.0,38.9,32.1,16.6,0000.0,0002.53,0001.88,0001.63
2022-09-17 02:33:00,,0824.7,5.00,0.00,30.3,28.7,00.0,38.9,32.2,16.7,0000.0,0002.58,0001.89,0001.63
2022-09-17 02:34:00,,0824.8,5.00,0.00,30.3,27.4,00.0,38.9,32.1,16.8,0000.0,0003.10,0001.88,0001.63
2022-09-17 02:35:00,,0824.8,5.00,0.00,30.3,27.0,00.0,38.9,32.0,16.8,0000.0,0004.16,0001.87,0001.63
2022-09-17 02:36:00,,0824.5,5.00,0.00,30.2,27.1,00.0,38.8,31.8,16.5,0000.0,0004.20,0001.87,0001.63
2022-09-17 02:37:00,,0824.6,5.01,0.00,30.1,27.5,00.0,38.8,31.7,16.4,0000.0,0004.17,0001.88,0001.65
2022-09-17 02:38:00,,0824.7,5.01,0.00,30.1,27.7,00.0,38.8,31.7,16.3,0000.0,0004.18,0001.90,0001.67
2022-09-17 02:39:00,,0824.6,5.00,0.00,30.0,28.0,00.0,38.8,31.8,16.1,0000.0,0005.10,0001.92,0001.69
2022-09-17 02:40:00,,0824.6,5.00,0.00,30.0,28.2,00.0,38.8,31.8,16.5,0000.0,0005.57,0001.94,0001.72
2022-09-17 02:41:00,,0824.6,5.01,0.00,30.1,28.4,00.0,38.8,31.9,16.6,0000.0,0005.67,0001.91,0001.73
2022-09-17 02:42:00,,0824.6,5.00,0.00,30.1,28.5,00.0,38.8,31.9,16.3,0000.0,0005.70,0001.92,0001.75
2022-09-17 02:43:00,,0824.7,5.01,0.00,30.1,28.6,00.0,38.8,31.9,16.4,0000.0,0005.68,0001.93,0001.77
2022-09-17 02:44:00,,0824.7,5.00,0.00,30.1,28.7,00.0,38.8,31.9,16.7,0000.0,0005.64,0001.92,0001.78
2022-09-17 02:45:00,,0824.9,5.00,0.00,30.1,28.8,00.0,38.8,32.0,16.7,0000.0,0005.16,0001.92,0001.79
2022-09-17 02:46:00,,0824.7,5.01,0.00,30.1,28.8,00.0,38.8,32.0,16.7,0000.0,0004.21,0001.97,0001.82
2022-09-17 02:47:00,,0824.7,4.99,0.00,30.2,28.9,00.0,38.8,32.0,16.9,0000.0,0003.90,0002.00,0001.83
2022-09-17 02:48:00,,0824.7,5.00,0.00,30.2,28.9,00.0,38.8,32.0,17.0,0000.0,0004.27,0002.01,0001.83
2022-09-17 02:49:00,,0824.7,5.02,0.00,30.2,29.0,00.0,38.9,32.0,17.0,0000.0,0005.38,0001.99,0001.82
2022-09-17 02:50:00,,0824.8,4.99,0.00,30.2,29.0,00.0,38.9,32.1,17.0,0000.0,0004.36,0001.97,0001.82
2022-09-17 02:51:00,,0824.8,5.00,0.00,30.3,29.1,00.0,38.9,32.1,16.9,0000.0,0004.03,0001.97,0001.80
2022-09-17 02:52:00,,0824.8,5.01,0.00,30.3,29.1,00.0,38.9,32.2,16.7,0000.0,0003.88,0001.98,0001.80
2022-09-17 02:53:00,,0824.8,5.01,0.00,30.3,28.3,00.0,38.9,32.2,16.7,0000.0,0003.89,0001.99,0001.80
2022-09-17 02:54:00,,0824.8,5.00,0.00,30.3,27.1,00.0,38.9,32.1,16.7,0000.0,0003.89,0001.99,0001.80
2022-09-17 02:55:00,,0824.8,5.00,0.00,30.2,27.0,00.0,38.8,32.0,17.0,0000.0,0004.03,0002.05,0001.81
2022-09-17 02:56:00,,0824.8,5.00,0.00,30.2,27.2,00.0,38.8,31.8,17.3,0000.0,0004.06,0002.07,0001.81
2022-09-17 02:57:00,,0824.8,5.00,0.00,30.1,27.5,00.0,38.8,31.7,17.2,0000.0,0004.09,0002.07,0001.81
2022-09-17 02:58:00,,0824.8,5.00,0.00,30.1,27.8,00.0,38.8,31.7,17.0,0000.0,0004.17,0002.08,0001.81
2022-09-17 02:59:00,,0824.7,5.01,0.00,30.0,28.0,00.0,38.8,31.7,16.8,0000.0,0004.04,0002.09,0001.82
